Volver al catálogo

FALCON 9 DEB

ActivoVLEO
NORAD 48837·DEBRIS·🇺🇸 United States

Lanzado May 15, 2021 desde Cape Canaveral Space Force Station

Loading…

Próximos Pases (próximas 24 horas)

TLE

ActualizadoSource: Space-Track

Época: Sep 13, 2026, 20:52 UTC

1 48837U 21041BL  26256.86962902  .00002532  00000-0  15730-3 0  9992
2 48837  53.0273  54.1716 0012629  46.1118 314.0915 15.13289706290306

Sigue FALCON 9 DEB en tiempo real con AllMySat

Download on the App Store